Date String (YYYY-MM-DD hh:mm:ss) UTC,Instrument flags,Ambient pressure (hPa),Sample flow (lpm),Bypass flow (lpm),Sample temperature (°C),Ambient temperature (°C),ASC tube jacket temperature (°C),LED temperature (°C),Box temperature (°C),Sample RH (%),Span deviation,Mass concentration (μg/m³),Mass concentration (μg/m³),Mass concentration (μg/m³)
DateTimeUTC,F1_M11,P_M11,Q1_M11,Q2_M11,T1_M11,T2_M11,T3_M11,T4_M11,T5_M11,U1_M11,ZSPAN_M11,X0_M11,X2_M11,X1_M11
2023-05-13 21:00:00,,0837.1,5.00,0.00,29.8,28.4,00.0,38.1,31.3,19.6,0000.0,0001.57,0000.89,0000.77
2023-05-13 21:01:00,,0837.1,5.00,0.00,29.8,28.4,00.0,38.1,31.4,19.9,0000.0,0001.57,0000.89,0000.77
2023-05-13 21:02:00,,0837.1,5.00,0.00,29.8,28.4,00.0,38.1,31.4,20.0,0000.0,0001.58,0000.87,0000.75
2023-05-13 21:03:00,,0837.1,5.00,0.00,29.8,28.4,00.0,38.2,31.4,19.8,0000.0,0001.57,0000.86,0000.73
2023-05-13 21:04:00,,0837.0,5.00,0.00,29.8,28.4,00.0,38.2,31.4,20.3,0000.0,0001.45,0000.82,0000.72
2023-05-13 21:05:00,,0837.1,5.00,0.00,29.8,28.5,00.0,38.2,31.4,19.7,0000.0,0001.37,0000.81,0000.71
2023-05-13 21:06:00,,0837.0,5.01,0.00,29.8,28.5,00.0,38.2,31.4,19.9,0000.0,0001.30,0000.81,0000.71
2023-05-13 21:07:00,,0837.0,5.00,0.00,29.9,28.5,00.0,38.2,31.4,20.1,0000.0,0001.26,0000.82,0000.71
2023-05-13 21:08:00,,0837.0,5.00,0.00,29.9,28.5,00.0,38.2,31.4,20.8,0000.0,0001.27,0000.82,0000.70
2023-05-13 21:09:00,,0837.0,4.99,0.00,29.9,28.5,00.0,38.2,31.4,20.2,0000.0,0001.29,0000.82,0000.69
2023-05-13 21:10:00,,0836.9,4.99,0.00,29.9,28.5,00.0,38.2,31.4,19.8,0000.0,0001.21,0000.83,0000.70
2023-05-13 21:11:00,,0836.9,5.00,0.00,29.9,28.5,00.0,38.2,31.5,20.2,0000.0,0001.27,0000.83,0000.70
2023-05-13 21:12:00,,0836.9,5.01,0.00,29.9,28.5,00.0,38.2,31.5,19.9,0000.0,0001.31,0000.86,0000.69
2023-05-13 21:13:00,,0836.9,5.01,0.00,29.9,28.6,00.0,38.2,31.5,19.9,0000.0,0001.35,0000.88,0000.71
2023-05-13 21:14:00,,0836.9,4.99,0.00,29.9,28.6,00.0,38.2,31.5,20.0,0000.0,0001.31,0000.88,0000.72
2023-05-13 21:15:00,,0836.9,5.00,0.00,29.9,28.6,00.0,38.3,31.5,19.8,0000.0,0001.48,0000.92,0000.73
2023-05-13 21:16:00,,0836.9,4.99,0.00,29.9,28.6,00.0,38.3,31.5,19.4,0000.0,0001.58,0000.95,0000.75
2023-05-13 21:17:00,,0837.0,5.00,0.00,29.9,28.6,00.0,38.3,31.5,19.7,0000.0,0001.57,0000.93,0000.75
2023-05-13 21:18:00,,0837.0,5.01,0.00,30.0,28.6,00.0,38.3,31.5,19.6,0000.0,0001.52,0000.92,0000.75
2023-05-13 21:19:00,,0837.0,5.00,0.00,30.0,28.6,00.0,38.3,31.5,19.5,0000.0,0001.49,0000.92,0000.78
2023-05-13 21:20:00,,0837.0,5.00,0.00,30.0,28.6,00.0,38.3,31.5,19.3,0000.0,0001.51,0000.95,0000.80
2023-05-13 21:21:00,,0837.0,4.99,0.00,30.0,28.6,00.0,38.3,31.6,19.6,0000.0,0001.64,0000.98,0000.81
2023-05-13 21:22:00,,0837.0,5.00,0.00,30.0,28.6,00.0,38.3,31.6,19.8,0000.0,0001.54,0000.97,0000.81
2023-05-13 21:23:00,,0837.0,4.99,0.00,30.0,28.7,00.0,38.3,31.6,19.7,0000.0,0001.54,0000.96,0000.82
2023-05-13 21:24:00,,0837.0,5.01,0.00,30.0,28.7,00.0,38.3,31.6,19.9,0000.0,0001.58,0000.97,0000.81
2023-05-13 21:25:00,,0837.0,5.01,0.00,30.0,28.7,00.0,38.3,31.6,20.0,0000.0,0001.69,0001.00,0000.80
2023-05-13 21:26:00,,0837.0,4.99,0.00,30.0,28.7,00.0,38.4,31.6,20.0,0000.0,0001.55,0000.98,0000.80
2023-05-13 21:27:00,,0836.9,4.99,0.00,30.0,28.7,00.0,38.4,31.6,20.1,0000.0,0001.49,0000.97,0000.78
2023-05-13 21:28:00,,0836.9,5.00,0.00,30.0,28.7,00.0,38.4,31.6,20.0,0000.0,0001.48,0000.97,0000.77
2023-05-13 21:29:00,,0836.9,5.00,0.00,30.0,28.7,00.0,38.4,31.6,20.2,0000.0,0001.49,0000.96,0000.76
2023-05-13 21:30:00,,0836.9,5.00,0.00,30.1,28.7,00.0,38.4,31.6,20.5,0000.0,0001.49,0000.95,0000.74
2023-05-13 21:31:00,,0836.9,5.01,0.00,30.1,28.7,00.0,38.4,31.6,20.7,0000.0,0001.48,0000.93,0000.73
2023-05-13 21:32:00,,0837.0,5.01,0.00,30.1,28.6,00.0,38.4,31.6,20.8,0000.0,0001.32,0000.90,0000.72
2023-05-13 21:33:00,,0837.0,5.00,0.00,30.1,28.6,00.0,38.4,31.6,20.7,0000.0,0001.30,0000.89,0000.73
2023-05-13 21:34:00,,0837.0,4.99,0.00,30.1,28.6,00.0,38.4,31.6,20.6,0000.0,0001.29,0000.90,0000.72
2023-05-13 21:35:00,,0837.0,4.99,0.00,30.1,28.6,00.0,38.4,31.6,20.5,0000.0,0001.28,0000.90,0000.73
2023-05-13 21:36:00,,0837.0,5.00,0.00,30.1,28.6,00.0,38.4,31.6,20.8,0000.0,0001.15,0000.87,0000.75
2023-05-13 21:37:00,,0837.0,5.02,0.00,30.1,28.5,00.0,38.4,31.6,20.6,0000.0,0001.13,0000.87,0000.76
2023-05-13 21:38:00,,0836.9,5.00,0.00,30.1,28.5,00.0,38.4,31.6,21.1,0000.0,0001.12,0000.87,0000.77
2023-05-13 21:39:00,,0836.9,5.00,0.00,30.1,28.5,00.0,38.4,31.6,20.8,0000.0,0001.18,0000.88,0000.79
2023-05-13 21:40:00,,0836.9,5.00,0.00,30.0,28.5,00.0,38.4,31.6,21.0,0000.0,0001.89,0000.89,0000.79
2023-05-13 21:41:00,,0836.8,5.01,0.00,30.0,28.5,00.0,38.4,31.6,21.2,0000.0,0001.88,0000.91,0000.81
2023-05-13 21:42:00,,0836.9,5.00,0.00,30.0,28.5,00.0,38.4,31.6,21.5,0000.0,0001.99,0000.96,0000.86
2023-05-13 21:43:00,,0836.8,4.99,0.00,30.0,28.5,00.0,38.4,31.6,21.9,0000.0,0002.01,0001.00,0000.90
2023-05-13 21:44:00,,0836.9,5.00,0.00,30.0,28.5,00.0,38.4,31.6,21.9,0000.0,0002.06,0001.06,0000.96
2023-05-13 21:45:00,,0836.9,5.00,0.00,30.0,28.4,00.0,38.4,31.6,22.2,0000.0,0002.06,0001.10,0001.02
2023-05-13 21:46:00,,0836.9,5.00,0.00,30.0,28.4,00.0,38.4,31.6,22.2,0000.0,0002.07,0001.13,0001.06
2023-05-13 21:47:00,,0836.9,5.01,0.00,30.0,28.4,00.0,38.4,31.6,22.1,0000.0,0002.47,0001.18,0001.10
2023-05-13 21:48:00,,0836.9,5.00,0.00,30.0,28.4,00.0,38.4,31.5,22.0,0000.0,0003.42,0001.23,0001.14
2023-05-13 21:49:00,,0837.0,5.01,0.00,30.0,28.4,00.0,38.4,31.5,22.1,0000.0,0003.42,0001.26,0001.18
2023-05-13 21:50:00,,0837.0,5.00,0.00,30.0,28.4,00.0,38.4,31.5,22.3,0000.0,0003.46,0001.31,0001.22
2023-05-13 21:51:00,,0837.0,4.99,0.00,30.0,28.4,00.0,38.4,31.5,22.4,0000.0,0002.79,0001.36,0001.27
2023-05-13 21:52:00,,0836.9,5.00,0.00,30.0,28.4,00.0,38.4,31.5,22.0,0000.0,0002.79,0001.41,0001.31
2023-05-13 21:53:00,,0836.9,5.01,0.00,30.0,28.4,00.0,38.4,31.5,21.9,0000.0,0002.71,0001.41,0001.31
2023-05-13 21:54:00,,0837.0,4.99,0.00,30.0,28.4,00.0,38.4,31.5,21.9,0000.0,0002.72,0001.43,0001.30
2023-05-13 21:55:00,,0837.0,4.99,0.00,30.0,28.4,00.0,38.4,31.5,21.9,0000.0,0002.70,0001.41,0001.29
2023-05-13 21:56:00,,0836.9,5.01,0.00,30.0,28.4,00.0,38.4,31.5,21.9,0000.0,0002.67,0001.38,0001.27
2023-05-13 21:57:00,,0837.0,5.01,0.00,30.0,28.4,00.0,38.4,31.5,22.0,0000.0,0002.61,0001.35,0001.25
2023-05-13 21:58:00,,0836.9,4.99,0.00,30.0,28.4,00.0,38.4,31.5,22.0,0000.0,0002.56,0001.33,0001.21
2023-05-13 21:59:00,,0836.9,4.99,0.00,30.0,28.4,00.0,38.4,31.5,21.9,0000.0,0003.44,0001.35,0001.17
